Istanbul, Turkey

4:37 PM EEST on September 25, 2016 (GMT +0300)
Ataturk

Weather History for LTBA - February, 2014

Change the Weather History Date:

Thursday, February 13, 2014

  Actual Average Record
Temperature  
Mean Temperature 56 °F -  
Max Temperature 63 °F 47 °F 63 °F (2014)
Min Temperature 50 °F 37 °F 23 °F (2004)
Degree Days  
Heating Degree Days 8    
Growing Degree Days 6 (Base 50)    
Moisture  
Dew Point 45 °F    
Average Humidity 66    
Maximum Humidity 94    
Minimum Humidity 38    
Precipitation  
Precipitation 0.12 in - - ()
Sea Level Pressure  
Sea Level Pressure 29.92 in    
Wind  
Wind Speed 4 mph ()    
Max Wind Speed 9 mph    
Max Gust Speed -    
Visibility 6.4 miles    
Events Rain    
Averages and records for this station are not official NWS values.
T = Trace of Precipitation, MM = Missing Value Source: Averaged Metar Reports

Daily Weather History Graph

Daily Weather History Graph

Search for Another Location

Airport or City:

Trip Planner

Search our weather history database for the weather conditions in past years. The results will help you decide how hot, cold, wet, or windy it might be!

Date:

Astronomy

Feb. 13, 2014 Rise Set
Actual Time 7:02 AM EET 5:36 PM EET
Civil Twilight 6:33 AM EET 6:04 PM EET
Nautical Twilight 6:01 AM EET 6:37 PM EET
Astronomical Twilight 5:29 AM EET 7:08 PM EET
Moon 4:26 PM EET (2/13) 5:43 AM EET (2/13)
Length of Visible Light 11h 31m
Length of Day
10h 34m
Waxing Gibbous, 98% of the Moon is Illuminated
Feb 13
Waxing Gibbous
Feb 15
Full
Feb 22
Last Quarter
Mar 1
New
Mar 8
First Quarter

Hourly Weather History & Observations

Time (EET) Temp. Dew Point Humidity Pressure Visibility Wind Dir Wind Speed Gust Speed Precip Events Conditions
12:20 AM 55.4 °F 41.0 °F 58% 29.95 in - ESE 3.5 mph - N/A   Clear
12:50 AM 53.6 °F 42.8 °F 67% 29.95 in - ESE 4.6 mph - N/A   Clear
1:20 AM 59.0 °F 42.8 °F 55% 29.95 in - SE 9.2 mph - N/A   Clear
1:50 AM 57.2 °F 42.8 °F 59% 29.95 in - SE 6.9 mph - N/A   Clear
2:00 AM 57 °F 43 °F 48% 29.95 in 6 mi SE 6.9 mph - -   Clear
2:20 AM 53.6 °F 42.8 °F 67% 29.95 in - East 3.5 mph - N/A   Clear
2:50 AM 51.8 °F 41.0 °F 67% 29.95 in - East 3.5 mph - N/A   Clear
3:20 AM 51.8 °F 41.0 °F 67% 29.92 in - Variable 2.3 mph - N/A   Clear
3:50 AM 51.8 °F 42.8 °F 71% 29.92 in - Calm Calm - N/A   Clear
4:20 AM 51.8 °F 42.8 °F 71% 29.92 in - ESE 4.6 mph - N/A   Clear
4:50 AM 51.8 °F 42.8 °F 71% 29.95 in - Variable 1.2 mph - N/A   Clear
5:00 AM 51 °F 42 °F 62% 29.95 in 12 mi East 1.2 mph - -  
5:20 AM 53.6 °F 42.8 °F 67% 29.95 in - Variable 1.2 mph - N/A   Clear
5:50 AM 51.8 °F 44.6 °F 76% 29.95 in - Calm Calm - N/A   Clear
6:20 AM 53.6 °F 44.6 °F 72% 29.95 in - Variable 2.3 mph - N/A   Clear
6:50 AM 53.6 °F 44.6 °F 72% 29.95 in - East 4.6 mph - N/A   Clear
7:20 AM 53.6 °F 44.6 °F 72% 29.95 in - Variable 2.3 mph - N/A   Clear
7:50 AM 55.4 °F 46.4 °F 72% 29.95 in - South 4.6 mph - N/A   Clear
8:00 AM 55 °F 46 °F 63% 29.96 in 6 mi South 4.6 mph - -   Clear
8:20 AM 57.2 °F 46.4 °F 67% 29.95 in - South 5.8 mph - N/A   Clear
8:50 AM 57.2 °F 46.4 °F 67% 29.95 in 6.2 mi SSE 6.9 mph - N/A   Scattered Clouds
9:20 AM 57.2 °F 46.4 °F 67% 29.95 in 6.2 mi East 5.8 mph - N/A   Scattered Clouds
9:50 AM 60.8 °F 46.4 °F 59% 29.95 in - SE 6.9 mph - N/A   Clear
10:20 AM 60.8 °F 46.4 °F 59% 29.95 in - SSE 5.8 mph - N/A   Clear
10:50 AM 60.8 °F 44.6 °F 55% 29.95 in - SSE 4.6 mph - N/A   Clear
11:00 AM 61 °F 44 °F 43% 29.95 in 6 mi SSE 4.6 mph - -  
11:20 AM 60.8 °F 46.4 °F 59% 29.95 in - SSW 4.6 mph - N/A   Clear
11:50 AM 60.8 °F 46.4 °F 59% 29.92 in - SW 5.8 mph - N/A   Clear
12:20 PM 62.6 °F 44.6 °F 52% 29.92 in - WSW 8.1 mph - N/A   Clear
12:50 PM 62.6 °F 44.6 °F 52% 29.92 in - WSW 9.2 mph - N/A   Clear
1:20 PM 62.6 °F 44.6 °F 52% 29.92 in - West 8.1 mph - N/A   Clear
1:50 PM 62.6 °F 44.6 °F 52% 29.89 in - West 6.9 mph - N/A   Clear
2:00 PM 63 °F 44 °F 38% 29.90 in 6 mi West 6.9 mph - -  
2:20 PM 62.6 °F 44.6 °F 52% 29.89 in - WSW 9.2 mph - N/A   Clear
2:50 PM 62.6 °F 44.6 °F 52% 29.89 in - WSW 6.9 mph - N/A   Clear
3:20 PM 62.6 °F 46.4 °F 55% 29.89 in - WSW 4.6 mph - N/A   Clear
3:50 PM 62.6 °F 46.4 °F 55% 29.89 in - West 3.5 mph - N/A   Clear
4:20 PM 59.0 °F 46.4 °F 63% 29.89 in - South 3.5 mph - N/A   Clear
4:50 PM 57.2 °F 46.4 °F 67% 29.89 in - SSW 3.5 mph - N/A   Clear
5:00 PM 58 °F 46 °F 54% 29.90 in 6 mi SSW 3.5 mph - -   Clear
5:20 PM 57.2 °F 44.6 °F 63% 29.89 in - SSW 3.5 mph - N/A   Clear
5:50 PM 55.4 °F 44.6 °F 67% 29.89 in - Variable 2.3 mph - N/A   Clear
6:20 PM 55.4 °F 46.4 °F 72% 29.89 in - Variable 2.3 mph - N/A   Clear
6:50 PM 55.4 °F 44.6 °F 67% 29.89 in 6.2 mi SW 5.8 mph - N/A   Mostly Cloudy
7:20 PM 55.4 °F 46.4 °F 72% 29.89 in 6.2 mi Variable 2.3 mph - N/A   Mostly Cloudy
7:50 PM 55.4 °F 46.4 °F 72% 29.89 in 6.2 mi SSW 3.5 mph - N/A   Mostly Cloudy
8:00 PM 56 °F 45 °F 58% 29.92 in 6 mi SSW 3.5 mph - -   Scattered Clouds
8:20 PM 55.4 °F 44.6 °F 67% 29.92 in 6.2 mi South 3.5 mph - N/A   Mostly Cloudy
8:33 PM 55.4 °F 46.4 °F 72% 29.92 in 6.2 mi SSW 4.6 mph - N/A Rain Light Rain Showers
8:50 PM 53.6 °F 48.2 °F 82% 29.92 in 6.2 mi WSW 8.1 mph - N/A Rain Light Rain Showers
9:20 PM 51.8 °F 48.2 °F 88% 29.92 in 6.2 mi WSW 9.2 mph - N/A Rain Light Rain Showers
9:50 PM 51.8 °F 50.0 °F 94% 29.92 in 6.2 mi WSW 8.1 mph - N/A Rain Light Rain Showers
10:20 PM 51.8 °F 50.0 °F 94% 29.92 in 6.2 mi SSW 3.5 mph - N/A Rain Light Rain Showers
10:50 PM 51.8 °F 50.0 °F 94% 29.89 in 6.2 mi Variable 1.2 mph - N/A Rain Light Rain Showers
11:00 PM 52 °F 50 °F 89% 29.91 in 6 mi NW 1.2 mph - - Rain Light Rain Showers
11:20 PM 51.8 °F 50.0 °F 94% 29.89 in 6.2 mi Variable 1.2 mph - N/A Rain Light Rain Showers
11:50 PM 53.6 °F 50.0 °F 88% 29.89 in 6.2 mi East 3.5 mph - N/A   Mostly Cloudy